Wind_Speed
2 2 2 2 2 1 1 1 1 1 0 0 1 1 1 1 1 2 2 2 2 2 2 2 2 2 2 2 1 1 1 0 0 1 1 1 1 2 2 2 2 2 1
2 2 3 3 3 3 2 2 2 2 1 1 0 0 0 0 1 1 1 1 1 1 2 2 2 1 1 1 1 1 0 1 1 1 1 2 2 2 2 3 3 2 2
3 3 3 3 4 4 3 3 3 3 2 2 1 1 0 1 1 1 1 0 1 1 1 1 1 1 1 1 1 1 1 1 1 1 1 2 2 2 2 3 3 2 2
3 4 4 4 4 4 4 4 4 3 3 3 2 1 1 2 1 1 1 1 1 0 0 1 1 1 2 2 2 2 1 1 2 1 2 2 2 1 2 2 3 2 2
4 4 5 5 5 5 6 6 5 5 4 4 3 2 2 2 2 2 2 2 2 1 1 1 1 1 2 2 2 2 2 2 2 2 2 2 2 2 2 2 3 3 3
5 5 6 6 6 6 6 7 6 6 5 4 4 4 3 3 3 3 2 2 3 3 2 2 2 2 2 2 2 2 2 2 1 1 1 2 2 2 2 2 3 3 4
7 6 6 7 7 7 7 7 7 6 6 6 5 5 5 5 5 4 3 3 3 3 3 3 3 4 4 4 3 3 2 2 2 2 2 2 2 3 3 4 4 4 4
8 8 8 8 8 8 8 8 7 8 8 7 7 7 6 6 6 5 5 5 5 5 5 5 5 4 4 4 4 4 3 3 3 4 4 3 3 3 4 4 4 4 4
9 9 9 9 10 9 8 8 9 9 9 9 8 8 8 8 7 7 7 6 6 6 6 6 6 5 5 5 5 5 5 4 4 5 5 5 5 5 5 5 5 5 6
10 10 10 10 10 11 11 10 10 11 11 10 10 10 10 10 9 9 9 9 8 8 8 7 8 7 6 6 6 6 6 6 6 6 6 6 6 6 6 6 7 7 7
11 12 12 11 11 12 12 12 12 12 12 11 11 12 12 11 11 12 12 11 11 10 10 9 9 9 9 9 8 8 7 7 8 8 8 8 8 8 8 8 8 8 8
12 12 12 12 12 13 13 13 13 13 13 13 12 13 13 12 13 13 13 14 13 13 12 12 11 11 11 11 10 10 9 9 9 10 10 10 10 10 10 10 11 11 11
12 13 13 14 13 13 14 14 15 15 14 14 14 14 14 14 15 14 14 14 14 14 14 14 13 13 13 12 12 12 12 11 12 12 12 12 12 12 12 12 13 13 13
12 12 13 13 13 13 14 15 16 16 16 16 16 16 16 16 16 16 16 16 16 16 15 15 15 15 15 15 14 14 14 14 14 14 14 14 14 13 14 14 15 15 15
11 11 12 12 13 14 15 15 16 17 18 18 18 18 18 18 18 17 17 18 18 17 17 17 17 17 17 17 16 17 16 16 16 16 16 16 16 16 16 16 16 16 16
12 12 12 13 14 14 15 15 16 17 18 19 20 20 20 20 19 19 19 20 20 19 19 19 19 19 19 19 19 19 19 19 19 18 18 18 19 18 18 18 18 17 18
13 13 13 14 14 14 14 15 17 17 18 20 20 21 21 22 21 22 21 21 21 21 21 21 21 20 20 21 21 20 20 20 20 20 20 20 20 20 21 21 21 21 21
14 14 13 14 14 15 15 15 16 17 18 19 20 21 21 22 22 22 23 23 22 22 22 22 22 22 22 22 22 21 21 22 21 22 23 23 23 23 23 24 24 24 24
15 14 14 14 15 15 15 16 16 17 18 19 19 20 21 21 21 22 23 22 23 22 22 22 23 24 24 23 23 23 23 23 23 24 24 25 26 26 27 27 27 27 27
15 15 14 15 15 16 16 16 17 18 18 18 19 19 20 21 22 22 22 22 22 22 23 23 24 24 24 24 24 25 25 26 26 26 27 28 28 29 29 30 30 30 30
14 15 15 16 15 16 16 16 17 17 17 17 18 19 19 20 21 22 22 22 23 23 23 24 25 26 26 26 25 26 27 28 28 29 29 30 31 31 31 31 32 32 33
14 15 15 16 16 17 17 17 17 17 17 18 19 19 20 21 22 23 23 23 23 24 24 25 26 26 27 28 28 28 29 29 30 31 31 31 32 32 33 34 35 35 35
16 15 15 16 17 17 17 18 17 18 18 19 19 20 21 22 22 22 23 23 24 25 25 26 27 28 28 29 29 29 30 31 31 32 32 32 33 33 35 36 37 37 38
16 16 17 18 18 18 18 18 19 20 20 21 21 21 22 22 22 22 23 24 25 26 27 28 29 29 30 30 31 31 31 32 32 33 33 33 34 36 37 38 39 40 41
17 17 18 18 19 19 19 20 20 21 22 21 22 22 22 22 23 23 23 24 25 26 28 29 30 30 31 32 32 32 32 33 33 34 35 36 36 38 38 39 40 41 42
18 18 18 19 19 20 20 21 22 22 22 22 23 24 24 24 24 25 25 25 27 28 29 30 31 31 32 33 34 35 35 35 36 36 37 38 38 39 39 40 41 42 43
Wind_Direction
272 273 297 299 299 294 274 258 236 239 159 73 114 108 91 79 79 60 64 63 63 65 70 69 65 58 61 60 48 57 90 37 332 280 253 255 261 259 257 243 228 237 251
262 288 283 285 285 277 273 269 257 253 256 242 245 210 189 29 34 19 47 73 76 73 68 64 58 50 33 25 22 18 342 335 331 296 266 253 254 258 254 249 245 244 245
259 266 270 274 271 265 261 258 257 246 240 240 248 242 271 308 319 320 281 202 106 77 73 61 45 23 359 349 339 330 293 296 301 296 265 250 245 251 252 246 242 241 243
260 259 263 274 271 255 251 251 254 256 253 250 246 267 277 279 287 291 240 189 173 116 53 1 347 340 334 329 331 326 294 289 288 286 257 242 239 248 251 238 234 239 247
264 262 264 266 271 260 253 250 248 253 258 254 248 245 253 269 269 260 233 220 224 243 295 291 285 294 312 316 314 317 304 287 288 281 258 246 251 253 257 248 242 247 252
265 267 265 261 264 256 248 246 246 250 253 250 248 247 241 248 262 259 247 246 247 252 267 273 274 283 295 302 292 282 280 275 276 278 266 263 257 259 264 265 258 254 259
267 267 266 266 261 256 247 246 246 248 252 247 250 249 244 246 249 249 250 254 262 260 256 264 271 274 281 282 275 266 256 253 254 260 265 261 257 258 262 264 264 260 260
267 264 266 264 258 254 248 247 247 245 243 241 246 249 246 246 242 242 248 253 261 266 266 267 268 272 275 273 267 264 256 251 252 256 258 262 267 270 273 264 265 265 263
263 264 264 259 256 252 251 252 253 244 240 238 240 244 245 245 246 248 250 252 255 263 267 265 263 265 265 269 265 264 260 257 258 257 259 263 262 264 270 269 267 267 269
264 261 260 260 257 255 254 254 253 245 241 241 240 241 244 245 245 246 250 253 255 258 259 258 260 262 261 262 262 263 262 262 260 257 257 262 262 263 264 268 267 266 269
266 265 260 259 258 255 254 249 248 245 243 243 244 246 246 244 245 246 248 253 255 257 258 259 260 259 260 260 261 261 264 263 260 260 261 262 263 264 264 265 266 265 268
265 264 262 262 258 255 254 250 248 246 245 245 249 250 248 247 248 250 252 254 255 256 257 256 257 257 258 259 260 260 262 265 263 262 264 264 264 265 266 266 267 268 269
267 263 263 261 259 258 256 255 250 248 248 246 250 252 251 251 251 253 253 254 254 255 256 255 257 259 260 261 262 263 263 265 266 263 264 264 264 264 267 267 269 269 271
266 265 265 259 260 259 257 254 252 251 249 249 250 251 252 253 254 254 254 255 256 258 259 257 256 257 258 261 262 262 263 266 267 266 266 266 267 265 267 268 270 271 270
268 264 264 260 260 261 258 255 254 252 251 250 251 252 253 256 257 255 255 256 258 257 257 259 257 253 255 258 262 264 266 267 267 268 268 267 268 268 268 269 270 270 270
273 270 263 260 261 263 260 256 256 254 254 254 253 253 254 255 255 256 258 258 258 257 257 258 256 254 255 257 259 261 264 267 266 267 269 268 270 271 270 270 269 269 270
273 272 267 261 262 264 262 260 258 255 256 256 255 255 254 255 256 257 258 259 259 259 258 256 256 255 257 259 260 261 264 265 266 267 269 270 272 272 271 270 270 271 271
273 271 266 263 263 263 264 264 262 258 260 259 257 256 255 255 256 257 258 258 259 259 258 257 258 259 260 261 263 263 264 265 267 268 269 270 271 271 272 272 271 272 273
274 269 265 264 264 264 265 267 265 263 263 261 259 257 257 257 256 257 258 258 259 259 258 258 259 260 261 262 264 265 266 267 268 268 269 270 270 271 271 272 273 273 274
273 269 265 265 265 265 267 270 266 263 262 261 260 259 259 259 260 260 261 261 260 260 260 260 262 263 263 264 265 265 267 268 269 271 272 271 270 272 272 273 274 274 274
271 270 267 266 267 267 268 269 267 264 262 262 260 260 261 263 265 265 266 265 263 262 262 262 263 264 265 266 266 266 268 270 271 272 274 273 272 272 273 275 275 276 276
275 273 272 270 270 268 267 268 268 263 264 264 263 263 264 267 271 270 269 268 266 264 264 264 265 266 266 266 267 267 269 270 272 274 274 274 274 273 272 273 275 277 276
274 273 274 274 272 269 268 268 266 264 267 267 266 266 267 268 271 272 271 270 269 268 266 267 267 268 267 267 268 270 272 275 275 274 275 275 275 275 275 275 276 276 276
272 271 274 275 275 273 270 269 268 267 268 267 266 267 267 269 271 274 274 272 271 270 270 269 268 268 268 269 270 271 273 275 275 276 277 277 276 276 276 276 277 276 276
272 272 274 275 275 274 271 270 270 271 269 268 266 266 267 268 271 274 277 276 275 273 273 272 271 270 269 271 272 274 273 274 275 277 278 278 277 276 276 277 277 277 277
273 272 273 275 276 276 274 271 273 271 269 269 269 268 268 270 272 273 275 276 276 275 276 275 273 272 274 274 273 274 275 276 277 277 278 278 278 278 277 277 278 278 279
Height
5906 5906 5906 5906 5906 5906 5906 5907 5907 5907 5907 5908 5907 5907 5907 5907 5906 5906 5906 5905 5905 5905 5904 5904 5904 5903 5903 5902 5902 5901 5901 5901 5900 5900 5900 5900 5899 5899 5899 5898 5898 5898 5898
5905 5905 5905 5905 5906 5906 5906 5906 5906 5907 5907 5907 5907 5907 5907 5907 5907 5906 5906 5905 5905 5905 5905 5904 5904 5904 5903 5903 5902 5902 5901 5901 5900 5900 5899 5899 5899 5899 5898 5898 5898 5897 5897
5904 5904 5904 5905 5905 5905 5905 5906 5906 5906 5907 5907 5907 5907 5907 5907 5906 5906 5906 5905 5905 5905 5905 5904 5904 5904 5903 5903 5902 5901 5901 5901 5900 5899 5899 5899 5898 5898 5898 5897 5897 5897 5897
5903 5903 5903 5904 5904 5904 5905 5905 5905 5905 5906 5906 5906 5906 5906 5906 5906 5906 5906 5905 5905 5905 5905 5904 5904 5904 5903 5902 5902 5901 5901 5900 5900 5899 5898 5898 5898 5898 5897 5897 5897 5897 5897
5902 5902 5902 5903 5903 5903 5904 5904 5904 5904 5905 5905 5905 5906 5906 5906 5906 5905 5905 5905 5905 5905 5904 5904 5904 5903 5903 5902 5902 5901 5900 5900 5899 5899 5898 5898 5897 5897 5897 5897 5896 5896 5896
5900 5900 5901 5901 5901 5902 5902 5902 5903 5903 5904 5904 5904 5905 5905 5905 5905 5905 5905 5904 5904 5904 5904 5904 5903 5903 5902 5902 5901 5900 5900 5899 5899 5898 5898 5897 5897 5897 5896 5896 5896 5895 5895
5898 5898 5899 5899 5899 5900 5900 5901 5901 5902 5902 5903 5903 5904 5904 5904 5905 5904 5904 5904 5904 5903 5903 5903 5903 5902 5902 5901 5900 5900 5899 5898 5898 5898 5897 5897 5896 5896 5896 5895 5895 5894 5894
5896 5896 5896 5897 5897 5898 5898 5899 5899 5900 5901 5901 5902 5902 5903 5904 5903 5903 5903 5903 5903 5902 5902 5902 5901 5901 5900 5900 5899 5899 5898 5898 5897 5897 5896 5896 5896 5895 5895 5894 5894 5893 5893
5893 5893 5893 5894 5895 5895 5896 5896 5897 5897 5898 5899 5900 5901 5901 5901 5902 5902 5902 5902 5901 5901 5901 5901 5900 5900 5899 5899 5898 5898 5897 5896 5896 5896 5895 5895 5895 5894 5894 5893 5893 5892 5891
5890 5890 5891 5891 5892 5892 5893 5894 5895 5895 5896 5897 5898 5898 5899 5899 5900 5900 5900 5900 5899 5899 5899 5899 5899 5898 5898 5897 5896 5896 5896 5895 5894 5894 5894 5893 5893 5892 5892 5891 5891 5890 5890
5887 5887 5887 5888 5889 5889 5890 5891 5892 5892 5893 5894 5895 5895 5896 5897 5897 5898 5898 5898 5898 5898 5897 5897 5897 5896 5896 5895 5895 5894 5894 5893 5893 5892 5892 5891 5891 5890 5890 5889 5889 5888 5887
5884 5884 5884 5885 5885 5886 5887 5887 5888 5889 5890 5891 5892 5892 5893 5894 5894 5895 5895 5895 5895 5895 5895 5895 5894 5894 5893 5893 5893 5892 5891 5891 5890 5890 5889 5889 5888 5888 5887 5886 5886 5885 5885
5880 5880 5881 5881 5882 5882 5883 5884 5885 5886 5886 5887 5888 5889 5890 5890 5891 5891 5892 5892 5892 5892 5892 5892 5891 5891 5891 5890 5890 5889 5889 5888 5887 5887 5886 5886 5885 5884 5884 5883 5883 5882 5881
5877 5877 5877 5877 5878 5879 5879 5880 5881 5882 5883 5883 5884 5885 5886 5886 5886 5887 5888 5888 5888 5888 5888 5888 5887 5887 5887 5887 5886 5886 5886 5885 5884 5884 5883 5883 5882 5881 5880 5880 5879 5878 5878
5874 5874 5874 5874 5875 5875 5876 5876 5877 5878 5878 5879 5880 5880 5881 5882 5882 5883 5883 5884 5884 5884 5884 5883 5883 5883 5883 5883 5883 5882 5882 5881 5880 5880 5879 5879 5878 5877 5877 5876 5875 5874 5873
5871 5870 5870 5870 5871 5871 5871 5872 5873 5873 5874 5875 5875 5876 5876 5877 5877 5878 5878 5878 5879 5879 5879 5879 5878 5878 5878 5878 5878 5878 5877 5877 5876 5875 5875 5874 5874 5873 5872 5871 5870 5870 5869
5867 5867 5866 5867 5867 5867 5867 5868 5868 5869 5869 5869 5870 5870 5871 5871 5872 5872 5872 5873 5873 5873 5873 5874 5873 5873 5873 5873 5873 5873 5872 5871 5871 5870 5870 5869 5869 5868 5867 5866 5865 5864 5863
5863 5863 5862 5863 5863 5863 5863 5863 5864 5864 5864 5864 5864 5865 5865 5866 5866 5866 5866 5867 5867 5867 5868 5868 5868 5867 5868 5867 5867 5867 5867 5866 5865 5865 5864 5864 5863 5862 5861 5860 5859 5858 5857
5859 5859 5858 5859 5859 5859 5859 5859 5859 5859 5859 5859 5860 5860 5860 5860 5860 5860 5860 5860 5861 5861 5861 5862 5862 5861 5862 5861 5861 5861 5860 5860 5859 5859 5858 5857 5856 5855 5854 5853 5853 5851 5850
5855 5855 5855 5855 5855 5855 5854 5854 5854 5854 5855 5855 5854 5855 5855 5855 5855 5855 5855 5855 5855 5855 5855 5855 5855 5855 5855 5855 5855 5855 5854 5853 5852 5852 5851 5850 5849 5848 5847 5846 5845 5844 5842
5851 5851 5850 5850 5850 5850 5850 5849 5849 5849 5850 5850 5849 5850 5850 5850 5849 5849 5849 5849 5848 5848 5849 5848 5849 5849 5849 5849 5849 5848 5847 5846 5845 5844 5843 5842 5841 5840 5839 5837 5836 5835 5834
5847 5847 5846 5846 5845 5845 5845 5845 5845 5845 5845 5845 5844 5844 5844 5844 5844 5844 5843 5843 5842 5842 5842 5842 5842 5842 5842 5842 5841 5841 5840 5839 5838 5836 5835 5833 5832 5831 5829 5828 5827 5825 5824
5843 5842 5842 5841 5841 5840 5840 5840 5840 5840 5840 5839 5839 5839 5839 5838 5838 5837 5837 5836 5836 5835 5835 5835 5835 5835 5834 5834 5833 5833 5832 5830 5829 5827 5826 5825 5823 5821 5819 5818 5816 5815 5813
5839 5838 5838 5837 5836 5836 5836 5835 5835 5835 5834 5834 5834 5833 5833 5833 5832 5831 5831 5830 5829 5829 5828 5827 5827 5826 5826 5825 5824 5824 5822 5821 5820 5818 5816 5815 5813 5811 5809 5807 5806 5804 5802
5834 5834 5833 5832 5831 5831 5830 5830 5829 5829 5829 5828 5828 5827 5827 5827 5826 5825 5824 5824 5823 5822 5820 5819 5818 5817 5817 5816 5815 5814 5813 5811 5810 5808 5806 5805 5803 5800 5798 5796 5794 5792 5790
5829 5828 5828 5827 5826 5825 5824 5824 5824 5823 5823 5822 5822 5821 5820 5820 5819 5818 5817 5816 5815 5814 5812 5811 5810 5809 5808 5807 5805 5804 5802 5801 5800 5798 5796 5793 5792 5789 5787 5785 5782 5780 5777